International Virtual Aviation Organisation

Russian Federation and Kazakhstan MCD

 

Карточка аэропорта UWKD

Внимание!
Информация на этой странице в стадии наполнения.
Если вы не увидели какой-то информации, или заметили неточность - пожалуйста сообщите нам!
Спасибо!
Команда RU-STAFF
Название аэропортаКазань
Название аэропорта (англ.)Kazan
Превышение413 ft. (125.9 m.)
Координаты55°36.498', 49°16.668'
Высота перехода900m
Эшелон переходаQFE>=749mm:FL050; QFE<749=>722:FL060; QFE<722:FL070
Коды ответчика6732-6737
Зона ОрВДСамара РПИ (UWWW)
Данные METARUWKD 282000Z 17004MPS CAVOK 03/M01 Q1021 R11/CLRD60 NOSIG RMK QFE756/1008
Проноз погоды (TAF)UWKD 281700Z 2818/2918 17003MPS CAVOK TX12/2912Z TN00/2903Z BECMG 2909/2911 17005G10MPS
NOTAMshow/hide NOTAM
AWOS   TABLE

Информация о ВПП

ВПП Длина ВПП (м.) Покрытие Курс ВПП Частота ILS
113750Цементобетон112110.5
293750Цементобетон292111.7

Диспетчерские позиции

Позывной Наименование органа УВД Частота
UWKD_R_APPКазань-Круг119.400
UWKD_TWRКазань-Старт120.300
UWKD_GNDКазань-Руление121.7
UWKD_APPКазань - Подход128.625



Спутниковое изображение